Terug naar catalogus

SL-8 R/B

ActiefLEO
NORAD 5555·ROCKET BODY·🇷🇺 Russia

Gelanceerd Oct 13, 1971 vanaf Plesetsk Cosmodrome

Loading…

Volgende Passages (komende 24 uur)

TLE

VersSource: Space-Track

Epoch: Sep 14, 2026, 01:12 UTC

1 05555U 71086J   26257.05005221 -.00000098  00000-0 -72412-3 0  9997
2 05555  74.0150 263.9215 0075824 203.7056 185.4492 12.27030029459812

Volg SL-8 R/B in realtime met AllMySat

Download on the App Store